TimeAST,TemperatureF,Dew PointF,Humidity,Sea Level PressureIn,VisibilityMPH,Wind Direction,Wind SpeedMPH,Gust SpeedMPH,PrecipitationIn,Events,Conditions,WindDirDegrees,DateUTC
12:53 AM,75.9,73.9,94,29.93,9.0,Calm,Calm,-,N/A,,Clear,0,2013-11-07 04:53:00
1:53 AM,75.9,73.9,94,29.91,9.0,Calm,Calm,-,N/A,,Clear,0,2013-11-07 05:53:00
2:53 AM,75.9,73.9,94,29.90,10.0,Calm,Calm,-,N/A,,Clear,0,2013-11-07 06:53:00
3:53 AM,75.9,73.9,94,29.90,10.0,Calm,Calm,-,N/A,,Clear,0,2013-11-07 07:53:00
4:53 AM,75.0,73.0,94,29.90,10.0,Calm,Calm,-,N/A,,Clear,0,2013-11-07 08:53:00
5:53 AM,75.9,73.9,94,29.91,4.0,WNW,4.6,-,0.02,Rain,Light Rain,300,2013-11-07 09:53:00
6:53 AM,75.9,73.9,94,29.92,10.0,Calm,Calm,-,0.00,,Partly Cloudy,0,2013-11-07 10:53:00
7:53 AM,80.1,77.0,90,29.94,10.0,Calm,Calm,-,N/A,,Clear,0,2013-11-07 11:53:00
8:45 AM,82.4,75.2,79,29.94,10.0,East,5.8,-,N/A,,Mostly Cloudy,80,2013-11-07 12:45:00
8:53 AM,82.9,75.9,79,29.95,10.0,ENE,5.8,-,N/A,,Mostly Cloudy,70,2013-11-07 12:53:00
9:07 AM,84.2,75.2,74,29.95,10.0,ENE,6.9,-,N/A,,Mostly Cloudy,70,2013-11-07 13:07:00
9:53 AM,84.0,73.9,72,29.96,10.0,East,5.8,-,N/A,,Partly Cloudy,90,2013-11-07 13:53:00
10:53 AM,87.1,75.0,67,29.96,10.0,ENE,5.8,-,N/A,,Clear,70,2013-11-07 14:53:00
11:53 AM,87.1,73.9,65,29.95,10.0,East,9.2,-,N/A,,Clear,80,2013-11-07 15:53:00
12:53 PM,86.0,75.0,70,29.92,10.0,ESE,5.8,-,N/A,,Clear,120,2013-11-07 16:53:00
1:53 PM,84.9,73.9,69,29.90,10.0,ESE,9.2,-,N/A,,Partly Cloudy,120,2013-11-07 17:53:00
2:53 PM,84.9,73.9,69,29.88,10.0,ESE,9.2,-,N/A,,Clear,120,2013-11-07 18:53:00
4:53 PM,82.9,73.0,72,29.89,10.0,SE,4.6,-,N/A,,Partly Cloudy,130,2013-11-07 20:53:00
5:53 PM,81.0,72.0,74,29.91,10.0,SSE,4.6,-,N/A,,Clear,150,2013-11-07 21:53:00
6:53 PM,77.0,73.9,90,29.92,10.0,Calm,Calm,-,N/A,,Scattered Clouds,0,2013-11-07 22:53:00
7:53 PM,79.0,75.0,88,29.93,10.0,NW,3.5,-,N/A,,Overcast,320,2013-11-07 23:53:00
8:53 PM,78.1,75.0,90,29.95,10.0,Calm,Calm,-,N/A,,Mostly Cloudy,0,2013-11-08 00:53:00
9:53 PM,81.0,75.9,85,29.95,10.0,East,3.5,-,N/A,,Overcast,90,2013-11-08 01:53:00
10:42 PM,80.6,73.4,79,29.95,10.0,Calm,Calm,-,N/A,,Mostly Cloudy,0,2013-11-08 02:42:00
10:53 PM,80.1,73.0,79,29.95,10.0,Calm,Calm,-,N/A,,Partly Cloudy,0,2013-11-08 02:53:00
11:53 PM,80.1,75.0,85,29.94,10.0,Calm,Calm,-,N/A,,Scattered Clouds,0,2013-11-08 03:53:00